Regional Weather Roundup
Issued by NWS

Home | Current Version | Previous Version | Text Only | Print | Product List | Glossary Off
Versions: 1 2 3 4 5 6 7 8 9 10 11 12 13 14 15 16 17 18 19 20 21 22 23 24 25 26 27 28 29 30 31 32 33 34 35 36 37 38 39 40 41 42 43 44 45 46 47 48 49 50

000
ASUS43 KLSX 281859
RWRMO

WEATHER SUMMARY FOR MISSOURI
NATIONAL WEATHER SERVICE SPRINGFIELD MO
200 PM CDT TUE JUL 28 2015

NOTE: "FAIR" INDICATES FEW OR NO CLOUDS BELOW 12,000 FEET WITH NO
       SIGNIFICANT WEATHER AND/OR OBSTRUCTIONS TO VISIBILITY.
       CURRENT SKY AND/OR WEATHER CONDITIONS ARE NOT AVAILABLE FOR
       CHILLICOTHE AND FARMINGTON.

MOZ001>031-035>038-043-044-053-054-282000-
...NORTHERN AND WESTERN MISSOURI...

CITY           SKY/WX    TMP DP  RH WIND       PRES   REMARKS
KANSAS CTY INT PTSUNNY   93  75  55 S17G23    29.89F HX 104
KANSAS C DTWN  SUNNY     95  73  48 S13G24    29.88S HX 104
LEE`S SUMMIT   SUNNY     93  72  50 S10G23    29.92F HX 101
ST JOSEPH      SUNNY     92  76  59 S14       29.86S HX 104
CHILLICOTHE      N/A     93  76  57 S7        29.91F HX 105
KIRKSVILLE     MOSUNNY   93  76  57 S10       29.94F HX 105

$$
MOZ066>068-077>081-088>096-101>105-282000-
...SOUTHWEST MISSOURI...

CITY           SKY/WX    TMP DP  RH WIND       PRES   REMARKS
SPRINGFIELD    MOSUNNY   92  72  51 SW10      30.00F HX  99
JOPLIN         SUNNY     95  71  45 SW16G25   29.96F HX 102

$$
MOZ032>034-039>042-045>050-055>058-069>072-282000-
...CENTRAL MISSOURI...

CITY           SKY/WX    TMP DP  RH WIND       PRES   REMARKS
COLUMBIA       MOSUNNY   92  77  61 SW10      29.95F HX 105
JEFFERSON CITY MOSUNNY   94  74  52 MISG      29.93F HX 104
ROLLA          MOSUNNY   91  77  63 W5        29.98F HX 104
SEDALIA        SUNNY     95  74  50 S12       29.96F HX 105
OSAGE BEACH    MOSUNNY   93  73  52 SW9       29.97F HX 102

$$
MOZ051-052-059>065-282000-
...EAST CENTRAL MISSOURI...

CITY           SKY/WX    TMP DP  RH WIND       PRES   REMARKS
ST LOUIS INTL  MOSUNNY   99  73  43 VRB3      29.95F HX 109
SPIRIT OF STL  MOSUNNY   95  80  61 VRB5      29.94S HX 114
ST CHARLES     SUNNY     92  78  63 SE3       29.94S HX 107

$$
MOZ072>076-082>087-097>100-106>115-282000-
...SOUTH CENTRAL AND SOUTHEAST MISSOURI...

CITY           SKY/WX    TMP DP  RH WIND       PRES   REMARKS
CAPE GIRARDEAU SUNNY     93  79  63 SW9       29.96F HX 110
FARMINGTON     MOSUNNY   93  79  62 SW7       30.02F HX 110
POPLAR BLUFF   SUNNY     93  77  59 SW9       29.96F HX 107
WEST PLAINS    SUNNY     92  72  51 CALM      30.03F HX  99

$$


USA.gov is the U.S. government's official web portal to all federal, state and local government web resources and services.